DELTA 1 DEB, 7024

Orbit data source: Space-Track

DELTA 1 DEB, 7024 is space debris in SSO originally from a launch on Tue, 06 Nov 1973 UTC launched from the Air Force Western Test Range (AFWTR). Debris objects in space refer to the collection of defunct objects orbiting the Earth. Examples of debris include non-operational satellites, rocket bodies, and fragments generated from explosions, collisions, or faulty payload assembly.

Loading next visibility...
Identifier
7024, 1973-086Q
Orbit
SSO
Country
Flag of USUS
Related business
Manufacturer
Unknown
Mission
Spacecraft
Bus & Motor
Unknown
Mass
Unknown
Launch date (UTC)
1973-11-06 (53 years ago)
Launch vehicle
Unknown
Launch site
Air Force Western Test Range (AFWTR)
Object type
Payload
Rocket body
Debris
Shape & HBR
Unknown shape, 0.1 m
Radar Cross Section
Medium (>0.1 m² and <1 m²)

Expand to show TLE details & history
Last TLE update: 2 days ago

TLE from 2 days ago
0 DELTA 1 DEB
1 07024U 73086Q   26171.13844954  .00002541  00000-0  11594-1 0  9995
2 07024 101.8747 246.1366 0066269 231.3675 157.9109 12.77989548431849
Epoch: 2026-06-20T03:19Z
TLE epoch observation values (Epoch: 2026-06-20T03:19:22.040Z)
Latitude
28.91395°
Longitude
-78.69908°
Altitude
1,400.387 km
Speed
7.14 km/s
True Right ascension
15h 58m 00s
True Declination
28° 46' 50"
Sunlit
Object was in daylight at epoch
Visualization orbit readout
Latitude
Unknown
Longitude
Unknown
Altitude
Unknown
Speed
Unknown
Apparent Right ascension
Unknown
Apparent Declination
Unknown
Sunlit
N/A
Visualization observer readout
Local Sidereal Time
00:50:07
Azimuth
Unknown
Elevation
Unknown
Doppler factor
Unknown
Orbital elements
Apogee altitude
1,398.276 km
Perigee altitude
1,295.887 km
Semi-major axis
7,725.219 km
Eccentricity
0.00663
Inclination
101.8747°
RAAN
246.1366°
Arg. of periapsis
231.3675°
True anomaly
158.19429°
Mean anomaly
157.9109°
Eccentric anomaly
158.05281°
Mean motion
3.19652 °/min
Orbital period
112.62 mins
BSTAR
0.011594
Loading maneuver chart data...
Computing Atmospheric mass density...
Loading historical data...
Loading historical data...
Loading historical data...
Loading historical data...
Loading historical data...
Loading historical data...
Loading historical data...

Documentation

Showing up to 5 results
|